FW3734 Weather Reports


time (UTC)temp
C
wind
direction
speed
KPH
gust
KPH
rain 1hr
cm
rain 24hr
cm
rain mn
cm
humidity
%
barometer
mb
20260507211527 18 178 0.0 9.7 0.00 0.00 0.00 39 1014.1
20260507210023 18 225 0.0 16.1 0.00 0.00 0.00 39 1014.3
20260507204521 18 158 0.0 8.0 0.00 0.00 0.00 39 1014.5
20260507203019 18 234 0.0 6.4 0.00 0.00 0.00 39 1014.8
20260507201517 18 240 0.0 9.7 0.00 0.00 0.00 39 1015.0
20260507200015 18 263 0.0 1.6 0.00 0.00 0.00 39 1015.0
20260507194511 18 186 0.0 8.0 0.00 0.00 0.00 38 1015.0
20260507193009 18 245 0.0 8.0 0.00 0.00 0.00 39 1015.2
20260507191507 18 281 0.0 8.0 0.00 0.00 0.00 40 1015.5
20260507190006 17 346 0.0 1.6 0.00 0.00 0.00 39 1015.6
20260507184502 17 148 0.0 11.3 0.00 0.00 0.00 38 1015.8
20260507183001 18 291 0.0 6.4 0.00 0.00 0.00 41 1015.8
20260507181558 17 355 1.6 16.1 0.00 0.00 0.00 40 1016.1
20260507180054 17 320 1.6 17.7 0.00 0.00 0.00 39 1016.2
20260507174551 17 205 0.0 6.4 0.00 0.00 0.00 43 1016.4
20260507173048 17 213 0.0 4.8 0.00 0.00 0.00 41 1016.6
20260507171550 16 275 0.0 16.1 0.00 0.00 0.00 39 1016.9
20260507170042 16 294 1.6 16.1 0.00 0.00 0.00 38 1017.2
20260507164555 16 355 0.0 6.4 0.00 0.00 0.00 42 1017.4
20260507163038 16 80 0.0 12.9 0.00 0.00 0.00 43 1017.5
20260507161539 15 11 0.0 11.3 0.00 0.00 0.00 44 1017.7
20260507160034 15 234 0.0 1.6 0.00 0.00 0.00 44 1017.8
20260507154527 15 292 1.6 17.7 0.00 0.00 0.00 40 1018.0
20260507153024 15 206 0.0 4.8 0.00 0.00 0.00 45 1018.0
20260507151522 15 265 0.0 6.4 0.00 0.00 0.00 48 1018.2
20260507150020 14 212 0.0 4.8 0.00 0.00 0.00 53 1018.3
20260507144514 13 207 0.0 1.6 0.00 0.00 0.00 60 1018.5
20260507143022 12 200 0.0 0.0 0.00 0.00 0.00 61 1018.6
20260507141507 12 236 0.0 4.8 0.00 0.00 0.00 62 1018.7
20260507140003 11 243 0.0 1.6 0.00 0.00 0.00 67 1018.7
20260507134610 10 215 0.0 0.0 0.00 0.00 0.00 69 1018.7
20260507133059 10 217 0.0 4.8 0.00 0.00 0.00 74 1018.6
20260507131602 8 231 0.0 0.0 0.00 0.00 0.00 81 1018.5
20260507130047 7 225 0.0 0.0 0.00 0.00 0.00 87 1018.7
20260507124544 7 225 0.0 0.0 0.00 0.00 0.00 90 1018.5
20260507123055 6 225 0.0 0.0 0.00 0.00 0.00 91 1018.4
20260507121544 5 225 0.0 1.6 0.00 0.00 0.00 91 1018.4
20260507120040 5 10 0.0 0.0 0.00 0.00 0.00 91 1018.2
20260507114539 5 10 0.0 0.0 0.00 0.00 0.00 91 1018.2
20260507113039 5 10 0.0 0.0 0.00 0.00 0.00 91 1018.0
20260507111539 5 10 0.0 0.0 0.00 0.00 0.00 91 1018.0
20260507110038 5 10 0.0 0.0 0.00 0.00 0.00 91 1017.8
20260507104538 5 10 0.0 0.0 0.00 0.00 0.00 90 1017.6
20260507103034 5 10 0.0 0.0 0.00 0.00 0.00 90 1017.6
20260507101534 5 10 0.0 0.0 0.00 0.00 0.00 89 1017.6
20260507100042 5 10 0.0 0.0 0.00 0.00 0.00 89 1017.6
20260507094533 5 10 0.0 0.0 0.00 0.00 0.00 89 1017.5
20260507093031 5 10 0.0 0.0 0.00 0.00 0.00 89 1017.5
20260507091535 5 10 0.0 0.0 0.00 0.00 0.00 89 1017.6
20260507090029 5 10 0.0 0.0 0.00 0.00 0.00 89 1017.6
20260507084528 5 10 0.0 0.0 0.00 0.00 0.00 88 1017.8
20260507083026 5 10 0.0 0.0 0.00 0.00 0.00 87 1017.8
20260507081524 5 10 0.0 0.0 0.00 0.00 0.00 86 1018.0
20260507080022 5 10 0.0 0.0 0.00 0.00 0.00 85 1018.1
20260507074520 6 10 0.0 0.0 0.00 0.03 0.00 85 1017.9
20260507073018 6 10 0.0 0.0 0.00 0.03 0.00 84 1017.9
20260507071523 6 10 0.0 0.0 0.00 0.03 0.00 83 1017.9
20260507070014 6 10 0.0 0.0 0.00 0.03 0.00 83 1017.9
20260507064511 6 10 0.0 0.0 0.00 0.13 0.00 82 1018.1
20260507063009 6 10 0.0 0.0 0.00 0.13 0.00 80 1017.9
20260507061508 6 10 0.0 0.0 0.00 0.13 0.00 79 1018.1
20260507060005 7 10 0.0 0.0 0.00 0.13 0.00 78 1018.1
20260507054504 7 10 0.0 0.0 0.00 0.18 0.00 78 1018.0
20260507053110 7 10 0.0 0.0 0.00 0.18 0.00 76 1017.9
20260507051607 7 10 0.0 0.0 0.00 0.18 0.00 75 1018.0
20260507050054 8 10 0.0 0.0 0.00 0.18 0.00 74 1017.9
20260507044557 8 10 0.0 0.0 0.00 0.20 0.18 74 1017.8
20260507043055 8 10 0.0 0.0 0.00 0.20 0.18 72 1017.7
20260507041551 8 10 0.0 0.0 0.00 0.20 0.18 72 1017.7
20260507040048 8 10 0.0 0.0 0.00 0.20 0.18 70 1017.7
20260507034549 9 10 0.0 0.0 0.00 0.23 0.18 68 1017.8
20260507033047 10 10 0.0 0.0 0.00 0.23 0.18 66 1017.8
20260507031546 10 10 0.0 1.6 0.00 0.23 0.18 64 1017.7
20260507030046 10 10 0.0 0.0 0.00 0.23 0.18 63 1017.7
20260507024546 10 10 0.0 0.0 0.00 0.25 0.18 62 1017.7
20260507023044 11 10 0.0 0.0 0.00 0.25 0.18 62 1017.6
20260507021544 11 10 0.0 0.0 0.00 0.25 0.18 61 1017.4
20260507020057 11 10 0.0 0.0 0.00 0.25 0.18 60 1017.3
20260507014546 12 10 0.0 0.0 0.00 0.48 0.18 58 1016.9
20260507013042 12 15 0.0 0.0 0.00 0.48 0.18 54 1016.8
20260507011542 13 11 0.0 0.0 0.00 0.48 0.18 53 1016.5
20260507010056 13 36 0.0 1.6 0.00 0.48 0.18 52 1016.2
20260507004539 13 13 0.0 3.2 0.00 0.69 0.18 50 1016.1
20260507003039 14 17 0.0 9.7 0.00 0.69 0.18 47 1016.1
20260507001537 15 5 0.0 0.0 0.00 0.69 0.18 46 1016.1
20260507000037 15 355 0.0 1.6 0.00 0.69 0.18 45 1015.9
20260506234537 15 5 0.0 6.4 0.00 0.99 0.18 45 1015.8
20260506233035 15 355 0.0 9.7 0.00 0.99 0.18 44 1015.8
20260506231544 15 276 0.0 4.8 0.00 0.99 0.18 44 1015.8
20260506230045 15 25 0.0 8.0 0.00 0.99 0.18 45 1015.9
20260506224539 15 5 0.0 0.0 0.00 1.07 0.18 45 1016.0
20260506223035 15 5 0.0 6.4 0.00 1.07 0.18 45 1016.0
20260506221536 15 265 0.0 0.0 0.00 1.07 0.18 46 1016.0
20260506220038 15 40 0.0 6.4 0.00 1.07 0.18 45 1016.1
20260506214537 16 341 0.0 17.7 0.00 1.09 0.18 44 1016.2
20260506213033 16 227 0.0 8.0 0.00 1.09 0.18 44 1016.3